Current Version              Previous Version:    01  02  03  04  05  06  07  08  09  10  11  12  13  14  15  16  17  18  19  20  21  22  23  24  25  26  27  28  29  30  
   31  32  33  34  35  36  37  38  39  40  41  42  43  44  45  46  47  48  49  50  51  52  53  54  55  56  57  58  59  60  

[Printable]
193
ASUS44 KLUB 242010
RWRTX
WEST TEXAS WEATHER ROUNDUP
NATIONAL WEATHER SERVICE LUBBOCK TX
200 PM CST SAT JAN 24 2015

NOTE: "FAIR" INDICATES FEW OR NO CLOUDS BELOW 12,000 FEET WITH NO
SIGNIFICANT WEATHER AND/OR OBSTRUCTIONS TO VISIBILITY.

TXZ004-006>008-010-012-014-016-OKZ002-242100-
TEXAS PANHANDLE/OKLAHOMA PANHANDLE

CITY           SKY/WX    TMP DP  RH WIND       PRES   REMARKS
AMARILLO       SUNNY     44  28  53 SW12      30.09F
BORGER         SUNNY     44  28  53 SW13      30.05F
CANADIAN       SUNNY     56  29  35 SW13      30.03F
DALHART        SUNNY     38  27  64 SW12      30.05F WCI  30
DUMAS          SUNNY     36  26  67 SW15      30.03F WCI  27
GUYMON         SUNNY     55  26  32 SW23      29.99F
HEREFORD       SUNNY     44  30  58 SW12      30.11F
PAMPA          SUNNY     39  28  65 W14       30.07F WCI  31
PERRYTON         N/A     48  33  57 SW18      30.02F
$$

TXZ026-029-035-045-048-242100-
SOUTHERN PANHANDLE/SOUTH PLAINS/ROLLING PLAINS

CITY           SKY/WX    TMP DP  RH WIND       PRES   REMARKS
CHILDRESS      SUNNY     58  30  34 W8        30.10F
SEMINOLE       PTSUNNY   54  28  36 W12       30.20F
LUBBOCK        MOSUNNY   51  33  50 W14       30.14F
PLAINVIEW      FAIR      45  33  64 W9        30.13F
SNYDER         PTSUNNY  N/A N/A N/A W7        30.16F
$$

TXZ052-054-060>062-072-078-127-140-154-169-242100-
PERMIAN BASIN/CONCHO VALLEY/BIG COUNTRY/EDWARDS PLATEAU

CITY           SKY/WX    TMP DP  RH WIND       PRES   REMARKS
ABILENE        PTSUNNY   53  35  50 W10       30.16F
BIG SPRING     MOSUNNY   56  33  41 W10       30.20F
BRADY          SUNNY     61  34  36 NW9       30.15F
BROWNWOOD      SUNNY     57  32  38 NW9       30.14F
JUNCTION       MOSUNNY   60  30  32 VRB3      30.16F
MIDLAND        MOSUNNY   56  33  42 NW10      30.19F
ODESSA         SUNNY     56  30  37 NW14      30.20F
SAN ANGELO     SUNNY     60  35  39 W12       30.16F
SONORA         MOSUNNY   59  32  36 NW8       30.22F
SWEETWATER     PTSUNNY   50  37  61 W9        30.19F
WINK           MOSUNNY   57  24  28 W9        30.20F
$$

TXZ055-058-074-075-080-082-242100-
FAR WEST/SOUTHWEST MOUNTAINS/TRANS PECOS

CITY           SKY/WX    TMP DP  RH WIND       PRES   REMARKS
ALPINE         SUNNY     53  22  29 W6        30.27F
DRYDEN           N/A     58  27  30 W10       30.20F
EL PASO        PTSUNNY   50  24  36 N10       30.26F
FORT STOCKTON  SUNNY     53  29  39 W6        30.22F
MARFA          SUNNY     52  18  25 S6        30.25F
PECOS          SUNNY     53  28  37 SW5       30.22F
PRESIDIO       FAIR      49  29  45 N5        30.25F
$$

TXZ014-016-019-021>030-083-242100
TEXAS TECH WEST TEXAS MESONET/TEXAS PANHANDLE/NORTHERN SOUTH PLAINS

CITY           SKY/WX    TMP DP  RH WIND       PRES   REMARKS
ABERNATHY 5ENE   N/A     49  33  54 W12       30.14F
AMARILLO 9NNE    N/A     47  28  47 S9        30.06F
AMARILLO 7SSE    N/A     42  29  58 SW9       30.09F
AMHERST 1NE      N/A     46  31  56 SW14      30.14F
BOOTLEG 11WNW    N/A     38  26  60 SW18      30.10F WCI  29
CANADIAN 6E      N/A     56  29  35 SW12      30.00F
CAPROCK CYN SP   N/A     51  29  43 W20       30.10F
CHILDRESS 2NNE   N/A     58  29  32 W9        30.09F
CLARENDON 2WSW   N/A     51  30  44 W8        30.09F
CLAUDE 12SW      N/A     48  28  46 SW8       30.08F
DIMMITT 2NE      N/A     43  28  56 SW15      30.11F
FLOYDADA 2NNE    N/A     51  31  47 W12       30.12F
FRIONA 2NE       N/A     42  28  57 SW12      30.12F
GOODLETT 3W      N/A     60  29  30 W8        30.08F
HART 3N          N/A     44  31  60 SW13      30.13F
HEREFORD 2NW     N/A     41  27  57 SW12      30.10F
MCLEAN 1E        N/A     44  29  56 W9        30.06F
MEMPHIS 1NE      N/A     58  28  31 SW8       30.09F
MULESHOE 2SSW    N/A     42  30  64 SW13      30.13F
OLTON 6S         N/A     45  33  62 SW10      30.13F
PALO DURO SP     N/A     45  26  48 W9        30.10F
PAMPA 2E         N/A     42  27  54 SW14      30.06F
PLAINVIEW 1S     N/A     46  32  58 W12       30.12F
SILVERTON 7ESE   N/A     40  32  71 SW10      30.11F WCI  34
TULIA 2ENE       N/A     47  31  51 SW15      30.11F
TURKEY 2WSW      N/A     54  31  40 W10       30.11F
UMBARGER 3NNE    N/A     41  28  60 SW7       30.10F
$$

TXZ033>036-039>041-045>048-242100
TEXAS TECH WEST TEXAS MESONET/SOUTH PLAINS

CITY           SKY/WX    TMP DP  RH WIND       PRES   REMARKS
AIKEN 3WSW       N/A     48  32  55 W13       30.14F
ANDREWS 2NE      N/A     55  27  33 W9        30.19F
ANTON 6SSW       N/A     45  35  69 W8        30.14F
BROWNFIELD 2S    N/A     53  30  41 W12       30.15F
DENVR CTY 7WNW   N/A     52  27  38 W14       30.17F
GAIL 2ESE        N/A     55  32  41 W7        30.15F
LAMESA 2SE       N/A     53  31  42 W10       30.17F
LEVELLAND 4S     N/A     53  31  43 W10       30.14F
LUBBOCK 3WNW     N/A     51  32  47 W10       30.15F
MORTON 1ENE      N/A     48  32  54 SW9       30.14F
ODONNELL 1N      N/A     55  29  37 W10       30.16F
PLAINS 3N        N/A     55  26  32 W14       30.15F
RALLS 1SE        N/A     52  32  47 W12       30.14F
REESE CENTER     N/A     47  33  57 W10       30.15F
SEAGRAVES 1SW    N/A     55  28  35 W14       30.16F
SEMINOLE 2NNE    N/A     55  26  33 W12       30.18F
SLATON 2NE       N/A     54  29  38 W10       30.14F
SNYDER 3E        N/A     55  34  45 W7        30.15F
SUNDOWN 8SW      N/A     57  29  34 W10       30.14F
TAHOKA 3NNE      N/A     55  31  40 W9        30.14F
WOLFFORTH 6SSW   N/A     53  35  52 W10       30.15F
$$

TXZ031-032-036>038-042>044-242100-
TEXAS TECH WEST TEXAS MESONET/ROLLING PLAINS

CITY           SKY/WX    TMP DP  RH WIND       PRES   REMARKS
ASPERMONT 3NE    N/A     60  32  34 W9        30.13F
FLUVANNA 3WNW    N/A     54  33  46 W7        30.14F
GRAHAM 5SSW      N/A     54  31  42 NW9       30.14F
GUTHRIE 10WSW    N/A     60  29  30 W9        30.11F
HASKELL 1NW      N/A     57  33  40 W8        30.12F
JAYTON 1SSE      N/A     59  30  33 NW9       30.13F
KNOX CITY 3NW    N/A     60  31  32 W6        30.12F
LK A HENRY 1NW   N/A     56  31  38 W8        30.13F
NORTHFIELD 1S    N/A     58  30  34 W12       30.10F
ODELL 4ENE       N/A     60  31  33 W6        30.09F
PADUCAH 10SW     N/A     60  30  31 W9        30.11F
POST 1NE         N/A     56  33  41 W9        30.14F
RRING SPRGS 3N   N/A     55  33  42 W10       30.12F
SEYMOUR 3NW      N/A     58  34  41 W8        30.10F
SPUR 1W          N/A     58  29  33 W9        30.12F
WEINERT 2NNE     N/A     58  34  41 W7        30.12F
WHITE RVR 6NE    N/A     56  33  42 W14       30.13F
$$

TXZ052-054-060>062-072-078-127-140-154-169-242100-
TEXAS TECH WEST TEXAS MESONET/PERMIAN BASIN/
CONCHO VALLEY/BIG COUNTRY/EDWARDS PLATEAU

CITY           SKY/WX    TMP DP  RH WIND       PRES   REMARKS
COYANOSA 2N      N/A     55  31  40 W5        30.21F
JUNCTION 1SSW    N/A     60  33  37 SW1       30.17F
MERTZON 3NNE     N/A     57  34  41 W7        30.18F
SAN ANGELO 7NW   N/A     57  36  44 W9        30.17F
STRLNG CT 4WSW   N/A     56  35  44 NW10      30.18F
ST LAWRNCE 5SW   N/A     55  37  52 W9        30.18F
SWEETWATR 11SW   N/A     53  36  52 W12       30.17F
WALL 1E          N/A     56  38  51 SW7       30.18F
$$

TXZ055-058-074-075-080-082-242100-
TEXAS TECH WEST TEXAS MESONET/FAR WEST/SOUTHWEST MOUNTAINS/TRANS PECOS

CITY           SKY/WX    TMP DP  RH WIND       PRES   REMARKS
PRSMN GAP BBNP   N/A     52  32  46 SE9       30.22F
GUADLPE MTN NP   N/A     47  20  34 S14       30.21F
$$